Weather at Boca Raton Airport

Public forecast

Using degrees Fahrenheit for public forecast. Weather courtesy of forecast.io.

Current aviation weather report (METAR) for Boca Raton Airport

Report is more than 2 hours old.

Retrieved 2022/08/09 02:53 UTC (6 hours ago):

KBCT 090253Z 13005KT 10SM SCT025 29/24 A3011

Aviation forecast (TAF) for Boca Raton Airport

Forecast is more than 12 hours old.

Retrieved 2020/02/03 18:20 UTC (3 years ago):

TAF KBCT 031720Z 0318/0418 12005KT P6SM SKC FM040000 VRB03KT P6SM SKC FM041400 16011KT P6SM FEW030